Flag Weather past 2 weeks in Langfang, Hebei, China

Now
41 °F

Haze.


Feels Like: 41 °F
Forecast: 38 / 47 °F
Wind: 1 mph from East

Location: Beijing Airport

Current Time: Nov 26, 2014 at 6:30:34 PM

Latest Report: Nov 26, 2014 at 6:00 PM


Visibility: 1 mi

Pressure: 30.07 "Hg

Humidity: 76%

Dew point: 34 °F

Location of LangfangLocation

Historic Weather in Langfang — Graph

°F

Langfang temperature yesterday

Maximum temperature yesterday: 48 °F (at 2:30 PM)
Minimum temperature yesterday: 27 °F (at 6:30 AM)
Average temperature yesterday: 38 °F

Past Weeks' High & Low Weather Summary

 TemperatureHumidityPressure
High59 °F (Nov 21, 2:30 PM)100% (Nov 20, 8:00 AM)30.51 "Hg (Nov 20, 8:00 AM)
Low25 °F (Nov 13, 6:30 AM)11% (Nov 12, 10:00 AM)29.98 "Hg (Nov 26, 2:00 AM)
Average40 °F53%30.26 "Hg
* Reported Nov 11 5:00 PM — Nov 26 5:30 PM, Langfang, Weather by CustomWeather, © 2014

Note: Actual official high and low records may vary slightly from our data, if they occured in-between our weather recording intervals... More about our weather records

Advertising

Langfang weather history for previous 24 hours

 ConditionsComfort  
Time TempWeatherWind HumidityBarometerVisibility
5:30 PM
Nov 26
41 °FHaze.1 mph76%30.04 "Hg1 mi
5:00 PM43 °FHaze.1 mph71%30.01 "Hg1 mi
4:30 PM43 °FHaze.3 mph66%30.01 "Hg1 mi
4:00 PM45 °FHaze.3 mph61%30.01 "Hg1 mi
3:30 PM45 °FHaze.3 mph61%30.01 "Hg1 mi
3:00 PM45 °FHaze.1 mph61%29.98 "Hg1 mi
2:30 PM45 °FHaze.3 mph66%29.98 "Hg1 mi
2:00 PM46 °FHaze.1 mph57%29.98 "Hg1 mi
1:30 PM46 °FHaze.3 mph57%29.98 "Hg1 mi
1:00 PM45 °FHaze.3 mph61%29.98 "Hg1 mi
12:30 PM45 °FHaze.1 mph61%29.98 "Hg1 mi
12:00 PM43 °FHaze.1 mph66%30.01 "Hg1 mi
11:30 AM41 °FHaze.1 mph70%30.01 "Hg1 mi
11:00 AM41 °FFog.1 mph70%30.01 "Hg1 mi
10:30 AM39 °FFog.1 mph75%30.04 "Hg1 mi
10:00 AM37 °FFog.1 mph81%30.04 "Hg1 mi
9:30 AM37 °FFog.3 mph81%30.04 "Hg1 mi
9:00 AM34 °FFog.1 mph93%30.01 "Hg1 mi
8:30 AM32 °FIce fog.1 mph93%30.01 "Hg1 mi
8:00 AM28 °FIce fog.1 mph100%29.98 "Hg1 mi
7:30 AM27 °FIce fog.1 mph100%29.98 "Hg1 mi
7:00 AM30 °FIce fog.1 mph93%29.98 "Hg2 mi
6:30 AM30 °FIce fog.1 mph100%29.98 "Hg2 mi
6:00 AM30 °FIce fog.1 mph93%29.98 "Hg2 mi
5:30 AM28 °FIce fog.1 mph100%29.98 "Hg2 mi
5:00 AM28 °FIce fog.1 mph100%29.98 "Hg2 mi
4:30 AM28 °FIce fog.1 mph93%29.98 "Hg2 mi
4:00 AM30 °FIce fog.No wind93%29.98 "Hg2 mi
3:30 AM30 °FIce fog.1 mph93%29.98 "Hg2 mi
3:00 AM30 °FIce fog.3 mph93%29.98 "Hg2 mi
2:30 AM32 °FIce fog.1 mph93%29.98 "Hg2 mi
2:00 AM32 °FIce fog.1 mph93%29.98 "Hg2 mi
1:30 AM32 °FIce fog.1 mph93%30.01 "Hg2 mi
1:00 AM34 °FFog.1 mph87%30.01 "Hg2 mi
12:30 AM34 °FFog.3 mph87%30.01 "Hg2 mi
12:00 AM36 °FFog.3 mph87%30.01 "Hg2 mi
11:30 PM
Nov 25
36 °FFog.3 mph87%30.01 "Hg2 mi
11:00 PM36 °FFog.3 mph87%30.01 "Hg3 mi
10:30 PM37 °FFog.3 mph81%30.01 "Hg3 mi
10:00 PM37 °FFog.3 mph81%30.01 "Hg3 mi
9:30 PM37 °FFog.1 mph81%30.04 "Hg3 mi
9:00 PM39 °FFog.3 mph81%30.04 "Hg3 mi
8:30 PM37 °FFog.3 mph81%30.04 "Hg3 mi
8:00 PM37 °FFog.3 mph87%30.04 "Hg3 mi
7:30 PM37 °FFog.1 mph87%30.04 "Hg3 mi
7:00 PM39 °FFog.No wind81%30.04 "Hg3 mi
6:30 PM41 °FFog.1 mph76%30.04 "Hg3 mi
6:00 PM45 °FHaze.3 mph71%30.04 "Hg3 mi
Weather by CustomWeather, © 2014

See weather overviewHow to use our weather pages